Location: Kott?ru
(16.6209°N, 80.6208°E)
Time: 06:25:55
(UTC+00:00)

Hubble Space Telescope - Pass Details

Date: 09 February 2023
Orbit: 527 x 530 km, 28.5° (Epoch: 27 March)

Event Time Altitude Azimuth Distance (km) Brightness Sun altitude
Rises 14:06:54 0° 249° (WSW) 2,642 5.7 -21.8°
Reaches altitude 10° 14:09:09 10° 252° (WSW) 1,753 4.5 -22.3°
Enters shadow 14:13:05 70° 321° (NW) 555 0.8 -23.2°
